Year,Month,Day,Hour,Minute,Value (Times are PST for temperature in C)
2016,03,25,00,00,6.90
2016,03,25,00,01,6.90
2016,03,25,00,02,6.90
2016,03,25,00,03,6.90
2016,03,25,00,04,6.90
2016,03,25,00,05,6.90
2016,03,25,00,06,6.90
2016,03,25,00,07,6.90
2016,03,25,00,08,6.90
2016,03,25,00,09,6.90
2016,03,25,00,10,6.90
2016,03,25,00,11,6.90
2016,03,25,00,12,6.90
2016,03,25,00,13,6.90
2016,03,25,00,14,6.90
2016,03,25,00,15,6.90
2016,03,25,00,16,6.90
2016,03,25,00,17,6.90
2016,03,25,00,18,6.90
2016,03,25,00,19,6.90
2016,03,25,00,20,6.90
2016,03,25,00,21,6.90
2016,03,25,00,22,6.90
2016,03,25,00,23,6.90
2016,03,25,00,24,6.90
2016,03,25,00,25,6.90
2016,03,25,00,26,6.90
2016,03,25,00,27,6.90
2016,03,25,00,28,6.90
2016,03,25,00,29,6.90
2016,03,25,00,30,6.90
2016,03,25,00,31,6.90
2016,03,25,00,32,6.90
2016,03,25,00,33,6.90
2016,03,25,00,34,6.90
2016,03,25,00,35,6.90
2016,03,25,00,36,6.90
2016,03,25,00,37,6.90
2016,03,25,00,38,6.90
2016,03,25,00,39,6.80
2016,03,25,00,40,6.80
2016,03,25,00,41,6.80
2016,03,25,00,42,6.70
2016,03,25,00,43,6.70
2016,03,25,00,44,6.70
2016,03,25,00,45,6.70
2016,03,25,00,46,6.70
2016,03,25,00,47,6.70
2016,03,25,00,48,6.70
2016,03,25,00,49,6.70
2016,03,25,00,50,6.70
2016,03,25,00,51,6.80
2016,03,25,00,52,6.80
2016,03,25,00,53,6.80
2016,03,25,00,54,6.80
2016,03,25,00,55,6.80
2016,03,25,00,56,6.80
2016,03,25,00,57,6.80
2016,03,25,00,58,6.80
2016,03,25,00,59,6.80
2016,03,25,01,00,6.80
2016,03,25,01,01,6.80
2016,03,25,01,02,6.70
2016,03,25,01,03,6.70
2016,03,25,01,04,6.80
2016,03,25,01,05,6.80
2016,03,25,01,06,6.80
2016,03,25,01,07,6.70
2016,03,25,01,08,6.70
2016,03,25,01,09,6.70
2016,03,25,01,10,6.80
2016,03,25,01,11,6.80
2016,03,25,01,12,6.80
2016,03,25,01,13,6.80
2016,03,25,01,14,6.80
2016,03,25,01,15,6.80
2016,03,25,01,16,6.80
2016,03,25,01,17,6.80
2016,03,25,01,18,6.80
2016,03,25,01,19,6.80
2016,03,25,01,20,6.80
2016,03,25,01,21,6.80
2016,03,25,01,22,6.70
2016,03,25,01,23,6.70
2016,03,25,01,24,6.70
2016,03,25,01,25,6.70
2016,03,25,01,26,6.70
2016,03,25,01,27,6.70
2016,03,25,01,28,6.70
2016,03,25,01,29,6.70
2016,03,25,01,30,6.70
2016,03,25,01,31,6.70
2016,03,25,01,32,6.70
2016,03,25,01,33,6.70
2016,03,25,01,34,6.70
2016,03,25,01,35,6.70
2016,03,25,01,36,6.70
2016,03,25,01,37,6.70
2016,03,25,01,38,6.70
2016,03,25,01,39,6.70
2016,03,25,01,40,6.60
2016,03,25,01,41,6.60
2016,03,25,01,42,6.60
2016,03,25,01,43,6.70
2016,03,25,01,44,6.70
2016,03,25,01,45,6.70
2016,03,25,01,46,6.70
2016,03,25,01,47,6.70
2016,03,25,01,48,6.70
2016,03,25,01,49,6.80
2016,03,25,01,50,6.80
2016,03,25,01,51,6.80
2016,03,25,01,52,6.80
2016,03,25,01,53,6.80
2016,03,25,01,54,6.80
2016,03,25,01,55,6.70
2016,03,25,01,56,6.70
2016,03,25,01,57,6.70
2016,03,25,01,58,6.70
2016,03,25,01,59,6.70
2016,03,25,02,00,6.70
2016,03,25,02,01,6.70
2016,03,25,02,02,6.70
2016,03,25,02,03,6.70
2016,03,25,02,04,6.70
2016,03,25,02,05,6.70
2016,03,25,02,06,6.70
2016,03,25,02,07,6.70
2016,03,25,02,08,6.70
2016,03,25,02,09,6.70
2016,03,25,02,10,6.70
2016,03,25,02,11,6.70
2016,03,25,02,12,6.70
2016,03,25,02,13,6.70
2016,03,25,02,14,6.70
2016,03,25,02,15,6.70
2016,03,25,02,16,6.70
2016,03,25,02,17,6.70
2016,03,25,02,18,6.70
2016,03,25,02,19,6.70
2016,03,25,02,20,6.70
2016,03,25,02,21,6.70
2016,03,25,02,22,6.70
2016,03,25,02,23,6.70
2016,03,25,02,24,6.70
2016,03,25,02,25,6.70
2016,03,25,02,26,6.70
2016,03,25,02,27,6.70
2016,03,25,02,28,6.70
2016,03,25,02,29,6.70
2016,03,25,02,30,6.70
2016,03,25,02,31,6.70
2016,03,25,02,32,6.60
2016,03,25,02,33,6.60
2016,03,25,02,34,6.60
2016,03,25,02,35,6.60
2016,03,25,02,36,6.60
2016,03,25,02,37,6.60
2016,03,25,02,38,6.60
2016,03,25,02,39,6.60
2016,03,25,02,40,6.60
2016,03,25,02,41,6.60
2016,03,25,02,42,6.60
2016,03,25,02,43,6.60
2016,03,25,02,44,6.60
2016,03,25,02,45,6.60
2016,03,25,02,46,6.60
2016,03,25,02,47,6.60
2016,03,25,02,48,6.60
2016,03,25,02,49,6.60
2016,03,25,02,50,6.60
2016,03,25,02,51,6.60
2016,03,25,02,52,6.60
2016,03,25,02,53,6.60
2016,03,25,02,54,6.60
2016,03,25,02,55,6.60
2016,03,25,02,56,6.60
2016,03,25,02,57,6.60
2016,03,25,02,58,6.60
2016,03,25,02,59,6.60
2016,03,25,03,00,6.60
2016,03,25,03,01,6.60
2016,03,25,03,02,6.60
2016,03,25,03,03,6.60
2016,03,25,03,04,6.60
2016,03,25,03,05,6.60
2016,03,25,03,06,6.60
2016,03,25,03,07,6.60
2016,03,25,03,08,6.60
2016,03,25,03,09,6.60
2016,03,25,03,10,6.60
2016,03,25,03,11,6.50
2016,03,25,03,12,6.50
2016,03,25,03,13,6.50
2016,03,25,03,14,6.50
2016,03,25,03,15,6.50
2016,03,25,03,16,6.40
2016,03,25,03,17,6.40
2016,03,25,03,18,6.40
2016,03,25,03,19,6.40
2016,03,25,03,20,6.40
2016,03,25,03,21,6.40
2016,03,25,03,22,6.40
2016,03,25,03,23,6.40
2016,03,25,03,24,6.40
2016,03,25,03,25,6.30
2016,03,25,03,26,6.30
2016,03,25,03,27,6.30
2016,03,25,03,28,6.30
2016,03,25,03,29,6.30
2016,03,25,03,30,6.30
2016,03,25,03,31,6.30
2016,03,25,03,32,6.20
2016,03,25,03,33,6.20
2016,03,25,03,34,6.20
2016,03,25,03,35,6.20
2016,03,25,03,36,6.20
2016,03,25,03,37,6.20
2016,03,25,03,38,6.20
2016,03,25,03,39,6.20
2016,03,25,03,40,6.20
2016,03,25,03,41,6.20
2016,03,25,03,42,6.20
2016,03,25,03,43,6.20
2016,03,25,03,44,6.10
2016,03,25,03,45,6.10
2016,03,25,03,46,6.10
2016,03,25,03,47,6.10
2016,03,25,03,48,6.10
2016,03,25,03,49,6.10
2016,03,25,03,50,6.10
2016,03,25,03,51,6.10
2016,03,25,03,52,6.00
2016,03,25,03,53,6.00
2016,03,25,03,54,6.00
2016,03,25,03,55,5.90
2016,03,25,03,56,5.90
2016,03,25,03,57,5.90
2016,03,25,03,58,5.90
2016,03,25,03,59,5.80
2016,03,25,04,00,5.80
2016,03,25,04,01,5.80
2016,03,25,04,02,5.80
2016,03,25,04,03,5.80
2016,03,25,04,04,5.70
2016,03,25,04,05,5.70
2016,03,25,04,06,5.70
2016,03,25,04,07,5.70
2016,03,25,04,08,5.60
2016,03,25,04,09,5.60
2016,03,25,04,10,5.60
2016,03,25,04,11,5.60
2016,03,25,04,12,5.50
2016,03,25,04,13,5.50
2016,03,25,04,14,5.50
2016,03,25,04,15,5.40
2016,03,25,04,16,5.40
2016,03,25,04,17,5.40
2016,03,25,04,18,5.40
2016,03,25,04,19,5.40
2016,03,25,04,20,5.30
2016,03,25,04,21,5.30
2016,03,25,04,22,5.30
2016,03,25,04,23,5.30
2016,03,25,04,24,5.30
2016,03,25,04,25,5.30
2016,03,25,04,26,5.30
2016,03,25,04,27,5.30
2016,03,25,04,28,5.30
2016,03,25,04,29,5.30
2016,03,25,04,30,5.20
2016,03,25,04,31,5.20
2016,03,25,04,32,5.20
2016,03,25,04,33,5.20
2016,03,25,04,34,5.20
2016,03,25,04,35,5.10
2016,03,25,04,36,5.10
2016,03,25,04,37,5.10
2016,03,25,04,38,5.10
2016,03,25,04,39,5.10
2016,03,25,04,40,5.10
2016,03,25,04,41,5.00
2016,03,25,04,42,5.00
2016,03,25,04,43,5.00
2016,03,25,04,44,5.00
2016,03,25,04,45,4.90
2016,03,25,04,46,4.90
2016,03,25,04,47,4.90
2016,03,25,04,48,4.90
2016,03,25,04,49,4.90
2016,03,25,04,50,4.90
2016,03,25,04,51,4.90
2016,03,25,04,52,4.80
2016,03,25,04,53,4.80
2016,03,25,04,54,4.80
2016,03,25,04,55,4.80
2016,03,25,04,56,4.80
2016,03,25,04,57,4.80
2016,03,25,04,58,4.80
2016,03,25,04,59,4.80
2016,03,25,05,00,4.90
2016,03,25,05,01,4.80
2016,03,25,05,02,4.80
2016,03,25,05,03,4.80
2016,03,25,05,04,4.80
2016,03,25,05,05,4.80
2016,03,25,05,06,4.80
2016,03,25,05,07,4.80
2016,03,25,05,08,4.80
2016,03,25,05,09,4.80
2016,03,25,05,10,4.80
2016,03,25,05,11,4.80
2016,03,25,05,12,4.80
2016,03,25,05,13,4.80
2016,03,25,05,14,4.80
2016,03,25,05,15,4.80
2016,03,25,05,16,4.80
2016,03,25,05,17,4.80
2016,03,25,05,18,4.80
2016,03,25,05,19,4.80
2016,03,25,05,20,4.80
2016,03,25,05,21,4.80
2016,03,25,05,22,4.80
2016,03,25,05,23,4.80
2016,03,25,05,24,4.80
2016,03,25,05,25,4.80
2016,03,25,05,26,4.80
2016,03,25,05,27,4.80
2016,03,25,05,28,4.80
2016,03,25,05,29,4.80
2016,03,25,05,30,4.80
2016,03,25,05,31,4.80
2016,03,25,05,32,4.70
2016,03,25,05,33,4.70
2016,03,25,05,34,4.70
2016,03,25,05,35,4.70
2016,03,25,05,36,4.60
2016,03,25,05,37,4.60
2016,03,25,05,38,4.60
2016,03,25,05,39,4.60
2016,03,25,05,40,4.50
2016,03,25,05,41,4.50
2016,03,25,05,42,4.40
2016,03,25,05,43,4.40
2016,03,25,05,44,4.40
2016,03,25,05,45,4.30
2016,03,25,05,46,4.30
2016,03,25,05,47,4.20
2016,03,25,05,48,4.20
2016,03,25,05,49,4.20
2016,03,25,05,50,4.10
2016,03,25,05,51,4.10
2016,03,25,05,52,4.10
2016,03,25,05,53,4.00
2016,03,25,05,54,4.00
2016,03,25,05,55,3.90
2016,03,25,05,56,3.90
2016,03,25,05,57,3.90
2016,03,25,05,58,3.80
2016,03,25,05,59,3.80
2016,03,25,06,00,3.80
2016,03,25,06,01,3.80
2016,03,25,06,02,3.80
2016,03,25,06,03,3.80
2016,03,25,06,04,3.80
2016,03,25,06,05,3.80
2016,03,25,06,06,3.80
2016,03,25,06,07,3.80
2016,03,25,06,08,3.70
2016,03,25,06,09,3.70
2016,03,25,06,10,3.70
2016,03,25,06,11,3.70
2016,03,25,06,12,3.70
2016,03,25,06,13,3.70
2016,03,25,06,14,3.70
2016,03,25,06,15,3.70
2016,03,25,06,16,3.70
2016,03,25,06,17,3.70
2016,03,25,06,18,3.70
2016,03,25,06,19,3.80
2016,03,25,06,20,3.80
2016,03,25,06,21,3.80
2016,03,25,06,22,3.80
2016,03,25,06,23,3.80
2016,03,25,06,24,3.90
2016,03,25,06,25,3.90
2016,03,25,06,26,3.90
2016,03,25,06,27,3.90
2016,03,25,06,28,3.90
2016,03,25,06,29,4.00
2016,03,25,06,30,4.00
2016,03,25,06,31,4.00
2016,03,25,06,32,4.00
2016,03,25,06,33,4.00
2016,03,25,06,34,4.10
2016,03,25,06,35,4.10
2016,03,25,06,36,4.10
2016,03,25,06,37,4.10
2016,03,25,06,38,4.10
2016,03,25,06,39,4.10
2016,03,25,06,40,4.20
2016,03,25,06,41,4.20
2016,03,25,06,42,4.20
2016,03,25,06,43,4.20
2016,03,25,06,44,4.20
2016,03,25,06,45,4.20
2016,03,25,06,46,4.20
2016,03,25,06,47,4.10
2016,03,25,06,48,4.10
2016,03,25,06,49,4.10
2016,03,25,06,50,4.10
2016,03,25,06,51,4.10
2016,03,25,06,52,4.10
2016,03,25,06,53,4.10
2016,03,25,06,54,4.10
2016,03,25,06,55,4.10
2016,03,25,06,56,4.10
2016,03,25,06,57,4.10
2016,03,25,06,58,4.10
2016,03,25,06,59,4.10
2016,03,25,07,00,4.10
2016,03,25,07,01,4.10
2016,03,25,07,02,4.10
2016,03,25,07,03,4.10
2016,03,25,07,04,4.20
2016,03,25,07,05,4.20
2016,03,25,07,06,4.20
2016,03,25,07,07,4.20
2016,03,25,07,08,4.20
2016,03,25,07,09,4.20
2016,03,25,07,10,4.20
2016,03,25,07,11,4.20
2016,03,25,07,12,4.20
2016,03,25,07,13,4.20
2016,03,25,07,14,4.20
2016,03,25,07,15,4.20
2016,03,25,07,16,4.20
2016,03,25,07,17,4.20
2016,03,25,07,18,4.20
2016,03,25,07,19,4.20
2016,03,25,07,20,4.20
2016,03,25,07,21,4.20
2016,03,25,07,22,4.20
2016,03,25,07,23,4.20
2016,03,25,07,24,4.30
2016,03,25,07,25,4.30
2016,03,25,07,26,4.30
2016,03,25,07,27,4.30
2016,03,25,07,28,4.30
2016,03,25,07,29,4.30
2016,03,25,07,30,4.30
2016,03,25,07,31,4.30
2016,03,25,07,32,4.40
2016,03,25,07,33,4.40
2016,03,25,07,34,4.40
2016,03,25,07,35,4.40
2016,03,25,07,36,4.40
2016,03,25,07,37,4.40
2016,03,25,07,38,4.50
2016,03,25,07,39,4.50
2016,03,25,07,40,4.50
2016,03,25,07,41,4.50
2016,03,25,07,42,4.50
2016,03,25,07,43,4.50
2016,03,25,07,44,4.50
2016,03,25,07,45,4.50
2016,03,25,07,46,4.50
2016,03,25,07,47,4.60
2016,03,25,07,48,4.60
2016,03,25,07,49,4.60
2016,03,25,07,50,4.60
2016,03,25,07,51,4.50
2016,03,25,07,52,4.50
2016,03,25,07,53,4.50
2016,03,25,07,54,4.50
2016,03,25,07,55,4.50
2016,03,25,07,56,4.50
2016,03,25,07,57,4.50
2016,03,25,07,58,4.60
2016,03,25,07,59,4.60
2016,03,25,08,00,4.60
2016,03,25,08,01,4.70
2016,03,25,08,02,4.70
2016,03,25,08,03,4.70
2016,03,25,08,04,4.80
2016,03,25,08,05,4.80
2016,03,25,08,06,4.80
2016,03,25,08,07,4.80
2016,03,25,08,08,4.80
2016,03,25,08,09,4.80
2016,03,25,08,10,4.80
2016,03,25,08,11,4.80
2016,03,25,08,12,4.80
2016,03,25,08,13,4.80
2016,03,25,08,14,4.80
2016,03,25,08,15,4.80
2016,03,25,08,16,4.80
2016,03,25,08,17,4.80
2016,03,25,08,18,4.90
2016,03,25,08,19,4.90
2016,03,25,08,20,4.90
2016,03,25,08,21,5.00
2016,03,25,08,22,5.10
2016,03,25,08,23,5.20
2016,03,25,08,24,5.30
2016,03,25,08,25,5.40
2016,03,25,08,26,5.50
2016,03,25,08,27,5.50
2016,03,25,08,28,5.50
2016,03,25,08,29,5.60
2016,03,25,08,30,5.70
2016,03,25,08,31,5.80
2016,03,25,08,32,5.90
2016,03,25,08,33,6.10
2016,03,25,08,34,6.30
2016,03,25,08,35,6.40
2016,03,25,08,36,6.60
2016,03,25,08,37,6.80
2016,03,25,08,38,6.90
2016,03,25,08,39,7.10
2016,03,25,08,40,7.20
2016,03,25,08,41,7.20
2016,03,25,08,42,7.20
2016,03,25,08,43,7.30
2016,03,25,08,44,7.40
2016,03,25,08,45,7.40
2016,03,25,08,46,7.40
2016,03,25,08,47,7.50
2016,03,25,08,48,7.40
2016,03,25,08,49,7.40
2016,03,25,08,50,7.50
2016,03,25,08,51,7.50
2016,03,25,08,52,7.50
2016,03,25,08,53,7.50
2016,03,25,08,54,7.60
2016,03,25,08,55,7.70
2016,03,25,08,56,7.80
2016,03,25,08,57,7.90
2016,03,25,08,58,8.10
2016,03,25,08,59,8.20
2016,03,25,09,00,8.20
2016,03,25,09,01,8.30
2016,03,25,09,02,8.30
2016,03,25,09,03,8.30
2016,03,25,09,04,8.40
2016,03,25,09,05,8.40
2016,03,25,09,06,8.40
2016,03,25,09,07,8.50
2016,03,25,09,08,8.50
2016,03,25,09,09,8.50
2016,03,25,09,10,8.70
2016,03,25,09,11,8.80
2016,03,25,09,12,8.90
2016,03,25,09,13,9.00
2016,03,25,09,14,9.10
2016,03,25,09,15,9.10
2016,03,25,09,16,9.10
2016,03,25,09,17,9.20
2016,03,25,09,18,9.20
2016,03,25,09,19,9.20
2016,03,25,09,20,9.20
2016,03,25,09,21,9.30
2016,03,25,09,22,9.30
2016,03,25,09,23,9.30
2016,03,25,09,24,9.30
2016,03,25,09,25,9.20
2016,03,25,09,26,9.10
2016,03,25,09,27,9.00
2016,03,25,09,28,9.00
2016,03,25,09,29,8.90
2016,03,25,09,30,8.90
2016,03,25,09,31,8.90
2016,03,25,09,32,8.90
2016,03,25,09,33,8.90
2016,03,25,09,34,8.90
2016,03,25,09,35,8.90
2016,03,25,09,36,9.00
2016,03,25,09,37,9.00
2016,03,25,09,38,9.10
2016,03,25,09,39,9.20
2016,03,25,09,40,9.30
2016,03,25,09,41,9.30
2016,03,25,09,42,9.30
2016,03,25,09,43,9.40
2016,03,25,09,44,9.50
2016,03,25,09,45,9.60
2016,03,25,09,46,9.70
2016,03,25,09,47,9.80
2016,03,25,09,48,9.90
2016,03,25,09,49,9.90
2016,03,25,09,50,9.90
2016,03,25,09,51,10.00
2016,03,25,09,52,10.10
2016,03,25,09,53,10.10
2016,03,25,09,54,10.10
2016,03,25,09,55,10.20
2016,03,25,09,56,10.30
2016,03,25,09,57,10.40
2016,03,25,09,58,10.50
2016,03,25,09,59,10.50
2016,03,25,10,00,10.60
2016,03,25,10,01,10.60
2016,03,25,10,02,10.60
2016,03,25,10,03,10.60
2016,03,25,10,04,10.60
2016,03,25,10,05,10.60
2016,03,25,10,06,10.40
2016,03,25,10,07,10.20
2016,03,25,10,08,10.00
2016,03,25,10,09,9.90
2016,03,25,10,10,9.70
2016,03,25,10,11,9.70
2016,03,25,10,12,9.60
2016,03,25,10,13,9.50
2016,03,25,10,14,9.50
2016,03,25,10,15,9.40
2016,03,25,10,16,9.30
2016,03,25,10,17,9.20
2016,03,25,10,18,9.10
2016,03,25,10,19,9.00
2016,03,25,10,20,8.90
2016,03,25,10,21,8.90
2016,03,25,10,22,8.80
2016,03,25,10,23,8.90
2016,03,25,10,24,8.90
2016,03,25,10,25,9.00
2016,03,25,10,26,9.20
2016,03,25,10,27,9.30
2016,03,25,10,28,9.40
2016,03,25,10,29,9.50
2016,03,25,10,30,9.70
2016,03,25,10,31,9.80
2016,03,25,10,32,9.90
2016,03,25,10,33,10.00
2016,03,25,10,34,10.10
2016,03,25,10,35,10.10
2016,03,25,10,36,10.00
2016,03,25,10,37,10.00
2016,03,25,10,38,9.90
2016,03,25,10,39,10.00
2016,03,25,10,40,10.00
2016,03,25,10,41,10.10
2016,03,25,10,42,10.20
2016,03,25,10,43,10.20
2016,03,25,10,44,10.30
2016,03,25,10,45,10.30
2016,03,25,10,46,10.30
2016,03,25,10,47,10.30
2016,03,25,10,48,10.30
2016,03,25,10,49,10.30
2016,03,25,10,50,10.30
2016,03,25,10,51,10.30
2016,03,25,10,52,10.40
2016,03,25,10,53,10.50
2016,03,25,10,54,10.60
2016,03,25,10,55,10.70
2016,03,25,10,56,10.80
2016,03,25,10,57,10.70
2016,03,25,10,58,10.50
2016,03,25,10,59,10.40
2016,03,25,11,00,10.30
2016,03,25,11,01,10.30
2016,03,25,11,02,10.20
2016,03,25,11,03,10.10
2016,03,25,11,04,10.00
2016,03,25,11,05,9.90
2016,03,25,11,06,9.70
2016,03,25,11,07,9.60
2016,03,25,11,08,9.40
2016,03,25,11,09,9.30
2016,03,25,11,10,9.30
2016,03,25,11,11,9.20
2016,03,25,11,12,9.20
2016,03,25,11,13,9.10
2016,03,25,11,14,9.10
2016,03,25,11,15,9.10
2016,03,25,11,16,9.10
2016,03,25,11,17,9.10
2016,03,25,11,18,9.10
2016,03,25,11,19,9.10
2016,03,25,11,20,9.10
2016,03,25,11,21,9.10
2016,03,25,11,22,9.10
2016,03,25,11,23,9.10
2016,03,25,11,24,9.10
2016,03,25,11,25,9.10
2016,03,25,11,26,9.10
2016,03,25,11,27,9.10
2016,03,25,11,28,9.10
2016,03,25,11,29,9.10
2016,03,25,11,30,9.10
2016,03,25,11,31,9.20
2016,03,25,11,32,9.20
2016,03,25,11,33,9.30
2016,03,25,11,34,9.40
2016,03,25,11,35,9.40
2016,03,25,11,36,9.40
2016,03,25,11,37,9.30
2016,03,25,11,38,9.30
2016,03,25,11,39,9.30
2016,03,25,11,40,9.20
2016,03,25,11,41,9.30
2016,03,25,11,42,9.30
2016,03,25,11,43,9.30
2016,03,25,11,44,9.30
2016,03,25,11,45,9.20
2016,03,25,11,46,9.20
2016,03,25,11,47,9.30
2016,03,25,11,48,9.40
2016,03,25,11,49,9.60
2016,03,25,11,50,9.70
2016,03,25,11,51,9.80
2016,03,25,11,52,9.90
2016,03,25,11,53,9.90
2016,03,25,11,54,9.90
2016,03,25,11,55,9.90
2016,03,25,11,56,10.00
2016,03,25,11,57,10.00
2016,03,25,11,58,10.10
2016,03,25,11,59,10.20
2016,03,25,12,00,10.20
2016,03,25,12,01,10.20
2016,03,25,12,02,10.10
2016,03,25,12,03,10.00
2016,03,25,12,04,10.00
2016,03,25,12,05,10.00
2016,03,25,12,06,10.00
2016,03,25,12,07,10.00
2016,03,25,12,08,10.00
2016,03,25,12,09,9.90
2016,03,25,12,10,9.90
2016,03,25,12,11,9.90
2016,03,25,12,12,9.90
2016,03,25,12,13,10.00
2016,03,25,12,14,10.00
2016,03,25,12,15,10.00
2016,03,25,12,16,10.00
2016,03,25,12,17,10.00
2016,03,25,12,18,9.90
2016,03,25,12,19,9.90
2016,03,25,12,20,9.90
2016,03,25,12,21,9.90
2016,03,25,12,22,9.90
2016,03,25,12,23,9.80
2016,03,25,12,24,9.80
2016,03,25,12,25,9.80
2016,03,25,12,26,9.80
2016,03,25,12,27,9.80
2016,03,25,12,28,9.70
2016,03,25,12,29,9.70
2016,03,25,12,30,9.70
2016,03,25,12,31,9.70
2016,03,25,12,32,9.70
2016,03,25,12,33,9.70
2016,03,25,12,34,9.70
2016,03,25,12,35,9.70
2016,03,25,12,36,9.70
2016,03,25,12,37,9.70
2016,03,25,12,38,9.70
2016,03,25,12,39,9.70
2016,03,25,12,40,9.60
2016,03,25,12,41,9.60
2016,03,25,12,42,9.60
2016,03,25,12,43,9.50
2016,03,25,12,44,9.50
2016,03,25,12,45,9.50
2016,03,25,12,46,9.40
2016,03,25,12,47,9.30
2016,03,25,12,48,9.30
2016,03,25,12,49,9.20
2016,03,25,12,50,9.20
2016,03,25,12,51,9.20
2016,03,25,12,52,9.20
2016,03,25,12,53,9.20
2016,03,25,12,54,9.30
2016,03,25,12,55,9.30
2016,03,25,12,56,9.30
2016,03,25,12,57,9.30
2016,03,25,12,58,9.20
2016,03,25,12,59,9.20
2016,03,25,13,00,9.10
2016,03,25,13,01,9.10
2016,03,25,13,02,9.10
2016,03,25,13,03,9.10
2016,03,25,13,04,9.10
2016,03,25,13,05,9.10
2016,03,25,13,06,9.10
2016,03,25,13,07,9.10
2016,03,25,13,08,9.00
2016,03,25,13,09,9.00
2016,03,25,13,10,8.90
2016,03,25,13,11,9.00
2016,03,25,13,12,9.00
2016,03,25,13,13,9.00
2016,03,25,13,14,9.00
2016,03,25,13,15,9.10
2016,03,25,13,16,9.20
2016,03,25,13,17,9.40
2016,03,25,13,18,9.50
2016,03,25,13,19,9.60
2016,03,25,13,20,9.70
2016,03,25,13,21,9.80
2016,03,25,13,22,9.90
2016,03,25,13,23,10.10
2016,03,25,13,24,10.10
2016,03,25,13,25,10.20
2016,03,25,13,26,10.20
2016,03,25,13,27,10.20
2016,03,25,13,28,10.20
2016,03,25,13,29,10.10
2016,03,25,13,30,10.00
2016,03,25,13,31,10.00
2016,03,25,13,32,10.00
2016,03,25,13,33,9.90
2016,03,25,13,34,9.90
2016,03,25,13,35,9.80
2016,03,25,13,36,9.70
2016,03,25,13,37,9.70
2016,03,25,13,38,9.60
2016,03,25,13,39,9.60
2016,03,25,13,40,9.50
2016,03,25,13,41,9.50
2016,03,25,13,42,9.40
2016,03,25,13,43,9.50
2016,03,25,13,44,9.50
2016,03,25,13,45,9.60
2016,03,25,13,46,9.60
2016,03,25,13,47,9.70
2016,03,25,13,48,9.70
2016,03,25,13,49,9.70
2016,03,25,13,50,9.60
2016,03,25,13,51,9.60
2016,03,25,13,52,9.60
2016,03,25,13,53,9.60
2016,03,25,13,54,9.70
2016,03,25,13,55,9.70
2016,03,25,13,56,9.80
2016,03,25,13,57,9.90
2016,03,25,13,58,10.00
2016,03,25,13,59,10.10
2016,03,25,14,00,10.20
2016,03,25,14,01,10.30
2016,03,25,14,02,10.30
2016,03,25,14,03,10.30
2016,03,25,14,04,10.20
2016,03,25,14,05,10.10
2016,03,25,14,06,10.00
2016,03,25,14,07,9.90
2016,03,25,14,08,9.80
2016,03,25,14,09,9.80
2016,03,25,14,10,9.70
2016,03,25,14,11,9.70
2016,03,25,14,12,9.60
2016,03,25,14,13,9.60
2016,03,25,14,14,9.50
2016,03,25,14,15,9.50
2016,03,25,14,16,9.50
2016,03,25,14,17,9.50
2016,03,25,14,18,9.50
2016,03,25,14,19,9.50
2016,03,25,14,20,9.50
2016,03,25,14,21,9.40
2016,03,25,14,22,9.40
2016,03,25,14,23,9.40
2016,03,25,14,24,9.40
2016,03,25,14,25,9.40
2016,03,25,14,26,9.40
2016,03,25,14,27,9.40
2016,03,25,14,28,9.40
2016,03,25,14,29,9.40
2016,03,25,14,30,9.40
2016,03,25,14,31,9.50
2016,03,25,14,32,9.50
2016,03,25,14,33,9.50
2016,03,25,14,34,9.60
2016,03,25,14,35,9.60
2016,03,25,14,36,9.70
2016,03,25,14,37,9.80
2016,03,25,14,38,9.80
2016,03,25,14,39,9.90
2016,03,25,14,40,10.00
2016,03,25,14,41,10.10
2016,03,25,14,42,10.20
2016,03,25,14,43,10.20
2016,03,25,14,44,10.30
2016,03,25,14,45,10.20
2016,03,25,14,46,10.10
2016,03,25,14,47,10.10
2016,03,25,14,48,10.00
2016,03,25,14,49,10.00
2016,03,25,14,50,10.00
2016,03,25,14,51,9.90
2016,03,25,14,52,9.90
2016,03,25,14,53,9.90
2016,03,25,14,54,9.90
2016,03,25,14,55,9.90
2016,03,25,14,56,9.90
2016,03,25,14,57,9.90
2016,03,25,14,58,9.90
2016,03,25,14,59,9.90
2016,03,25,15,00,9.90
2016,03,25,15,01,9.90
2016,03,25,15,02,9.90
2016,03,25,15,03,9.90
2016,03,25,15,04,9.90
2016,03,25,15,05,9.90
2016,03,25,15,06,9.90
2016,03,25,15,07,9.90
2016,03,25,15,08,9.90
2016,03,25,15,09,10.00
2016,03,25,15,10,10.00
2016,03,25,15,11,10.00
2016,03,25,15,12,10.00
2016,03,25,15,13,10.00
2016,03,25,15,14,10.00
2016,03,25,15,15,9.90
2016,03,25,15,16,9.90
2016,03,25,15,17,9.90
2016,03,25,15,18,9.80
2016,03,25,15,19,9.80
2016,03,25,15,20,9.80
2016,03,25,15,21,9.80
2016,03,25,15,22,9.80
2016,03,25,15,23,9.80
2016,03,25,15,24,9.80
2016,03,25,15,25,9.90
2016,03,25,15,26,10.00
2016,03,25,15,27,10.20
2016,03,25,15,28,10.20
2016,03,25,15,29,10.30
2016,03,25,15,30,10.30
2016,03,25,15,31,10.30
2016,03,25,15,32,10.30
2016,03,25,15,33,10.20
2016,03,25,15,34,10.10
2016,03,25,15,35,10.00
2016,03,25,15,36,9.90
2016,03,25,15,37,9.80
2016,03,25,15,38,9.70
2016,03,25,15,39,9.70
2016,03,25,15,40,9.70
2016,03,25,15,41,9.70
2016,03,25,15,42,9.70
2016,03,25,15,43,9.70
2016,03,25,15,44,9.70
2016,03,25,15,45,9.70
2016,03,25,15,46,9.60
2016,03,25,15,47,9.60
2016,03,25,15,48,9.60
2016,03,25,15,49,9.60
2016,03,25,15,50,9.60
2016,03,25,15,51,9.60
2016,03,25,15,52,9.50
2016,03,25,15,53,9.50
2016,03,25,15,54,9.50
2016,03,25,15,55,9.50
2016,03,25,15,56,9.50
2016,03,25,15,57,9.50
2016,03,25,15,58,9.50
2016,03,25,15,59,9.40
2016,03,25,16,00,9.40
2016,03,25,16,01,9.40
2016,03,25,16,02,9.40
2016,03,25,16,03,9.40
2016,03,25,16,04,9.40
2016,03,25,16,05,9.30
2016,03,25,16,06,9.30
2016,03,25,16,07,9.30
2016,03,25,16,08,9.30
2016,03,25,16,09,9.30
2016,03,25,16,10,9.30
2016,03,25,16,11,9.30
2016,03,25,16,12,9.30
2016,03,25,16,13,9.40
2016,03,25,16,14,9.30
2016,03,25,16,15,9.40
2016,03,25,16,16,9.40
2016,03,25,16,17,9.40
2016,03,25,16,18,9.40
2016,03,25,16,19,9.40
2016,03,25,16,20,9.40
2016,03,25,16,21,9.50
2016,03,25,16,22,9.60
2016,03,25,16,23,9.60
2016,03,25,16,24,9.60
2016,03,25,16,25,9.60
2016,03,25,16,26,9.70
2016,03,25,16,27,9.70
2016,03,25,16,28,9.70
2016,03,25,16,29,9.70
2016,03,25,16,30,9.70
2016,03,25,16,31,9.70
2016,03,25,16,32,9.70
2016,03,25,16,33,9.70
2016,03,25,16,34,9.70
2016,03,25,16,35,9.70
2016,03,25,16,36,9.70
2016,03,25,16,37,9.70
2016,03,25,16,38,9.70
2016,03,25,16,39,9.70
2016,03,25,16,40,9.70
2016,03,25,16,41,9.70
2016,03,25,16,42,9.70
2016,03,25,16,43,9.70
2016,03,25,16,44,9.70
2016,03,25,16,45,9.70
2016,03,25,16,46,9.60
2016,03,25,16,47,9.60
2016,03,25,16,48,9.60
2016,03,25,16,49,9.60
2016,03,25,16,50,9.60
2016,03,25,16,51,9.60
2016,03,25,16,52,9.60
2016,03,25,16,53,9.60
2016,03,25,16,54,9.60
2016,03,25,16,55,9.60
2016,03,25,16,56,9.60
2016,03,25,16,57,9.60
2016,03,25,16,58,9.60
2016,03,25,16,59,9.60
2016,03,25,17,00,9.60
2016,03,25,17,01,9.60
2016,03,25,17,02,9.60
2016,03,25,17,03,9.60
2016,03,25,17,04,9.70
2016,03,25,17,05,9.70
2016,03,25,17,06,9.70
2016,03,25,17,07,9.70
2016,03,25,17,08,9.70
2016,03,25,17,09,9.80
2016,03,25,17,10,9.80
2016,03,25,17,11,9.80
2016,03,25,17,12,9.80
2016,03,25,17,13,9.80
2016,03,25,17,14,9.80
2016,03,25,17,15,9.80
2016,03,25,17,16,9.80
2016,03,25,17,17,9.80
2016,03,25,17,18,9.80
2016,03,25,17,19,9.80
2016,03,25,17,20,9.80
2016,03,25,17,21,9.80
2016,03,25,17,22,9.80
2016,03,25,17,23,9.80
2016,03,25,17,24,9.80
2016,03,25,17,25,9.80
2016,03,25,17,26,9.70
2016,03,25,17,27,9.70
2016,03,25,17,28,9.60
2016,03,25,17,29,9.60
2016,03,25,17,30,9.50
2016,03,25,17,31,9.50
2016,03,25,17,32,9.40
2016,03,25,17,33,9.40
2016,03,25,17,34,9.30
2016,03,25,17,35,9.30
2016,03,25,17,36,9.20
2016,03,25,17,37,9.20
2016,03,25,17,38,9.10
2016,03,25,17,39,9.10
2016,03,25,17,40,9.00
2016,03,25,17,41,9.00
2016,03,25,17,42,9.00
2016,03,25,17,43,8.90
2016,03,25,17,44,8.90
2016,03,25,17,45,8.90
2016,03,25,17,46,8.90
2016,03,25,17,47,8.90
2016,03,25,17,48,8.90
2016,03,25,17,49,8.80
2016,03,25,17,50,8.80
2016,03,25,17,51,8.80
2016,03,25,17,52,8.80
2016,03,25,17,53,8.80
2016,03,25,17,54,8.80
2016,03,25,17,55,8.80
2016,03,25,17,56,8.70
2016,03,25,17,57,8.70
2016,03,25,17,58,8.70
2016,03,25,17,59,8.70
2016,03,25,18,00,8.70
2016,03,25,18,01,8.70